Terug naar catalogus

ATLAS 5 CENTAUR DEB

ActiefHEO
NORAD 46608·DEBRIS·🇺🇸 United States

Gelanceerd Oct 17, 2018 vanaf Cape Canaveral Space Force Station

Loading…

Volgende Passages (komende 24 uur)

TLE

VersSource: Space-Track

Epoch: Sep 11, 2026, 19:32 UTC

1 46608U 18079CG  26254.81421598 -.00000167  00000-0  00000-0 0  9991
2 46608  13.6015  31.4456 4674434 317.7287  14.3633  1.79356780 31822

Volg ATLAS 5 CENTAUR DEB in realtime met AllMySat

Download on the App Store